AirNav   Air Wisconsin Up To $57,000 Bonus
 
 1112 users online  

36PN US Army Reserve Center Heliport
Edgemont, Pennsylvania, USA

GOING TO EDGEMONT?


FAA INFORMATION EFFECTIVE 14 JULY 2022

Location

FAA Identifier: 36PN
Lat/Long: 39-58-00.3960N 075-27-08.7150W
39-58.006600N 075-27.145250W
39.9667767,-75.4524208
(estimated)
Elevation: 480 ft. / 146 m (estimated)
Variation: 11W (1985)
From city: 2 miles E of EDGEMONT, PA
Time zone: UTC -4 (UTC -5 during Standard Time)
Zip code: 19073

Heliport Operations

Heliport use: Private use. Permission required prior to landing
Activation date: 08/1980
Control tower: no
ARTCC: NEW YORK CENTER
FSS: WILLIAMSPORT FLIGHT SERVICE STATION
Attendance: UNATNDD
Segmented circle: no

Heliport Communications

WX AWOS-3T at OQN (6 nm W): 121.4 ((610) 692-6190)
WX ASOS at PHL (11 nm SE): PHONE 215-492-9617
WX AWOS-3 at LOM (13 nm NE): 118.925 (215-646-1068)
WX ASOS at PTW (17 nm N): 119.425 (610-495-0823)
WX ASOS at ILG (19 nm S): 123.95 (302-328-1536)
WX AWOS-3 at MQS (19 nm W): 126.25 (610-384-6132)

Nearby radio navigation aids

VOR radial/distance  VOR name  Freq  Var
MXEr083/10.5MODENA VORTAC113.2009W
PTWr171/16.1POTTSTOWN VORTAC116.5009W
DQOr032/18.7DUPONT VORTAC114.0010W
OODr351/21.0WOODSTOWN VORTAC112.8010W
ARDr245/30.3YARDLEY VOR/DME108.2010W
VCNr329/34.1CEDAR LAKE VOR/DME115.2010W
ETXr173/38.4EAST TEXAS VOR/DME110.2009W
GXUr278/39.4MC GUIRE VORTAC110.6012W
LRPr112/39.6LANCASTER VOR/DME117.3009W

 
NDB name  Hdg/Dist  Freq  Var  ID
RAINBOW347/36.036311WRNB .-. -. -...

Heliport Services

Runway Information

Helipad H1

Dimensions: 150 x 75 ft. / 46 x 23 m
Surface: turf, in fair condition
Latitude: 39-58.006600N
Longitude: 075-27.145250W
Elevation: 480.0 ft.
Traffic pattern: leftleft
Markings: none, in fair condition

Heliport Ownership and Management from official FAA records

Ownership: Privately-owned
Owner: EDGEMONT USA RESERVE CTR
DELCHESTER RD & RT 3
EDGEMONT, PA 19028-5099
Phone 215-558-1111
Manager: LOUIE E SUMMERS
DELCHESTER RD & RT 3
EDGEMONT, PA 19028-5099
Phone 215-558-1110

Additional Remarks

FOR CD CTC PHILADELPHIA APCH AT 800-354-9884.

Instrument Procedures

There are no published instrument procedures at 36PN.

Some nearby airports with instrument procedures:

KOQN - Brandywine Regional Airport (6 nm W)
KPHL - Philadelphia International Airport (11 nm SE)
KLOM - Wings Field Airport (13 nm NE)
7N7 - Spitfire Aerodrome (14 nm S)
N57 - New Garden Airport (17 nm SW)
KPTW - Heritage Field Airport (17 nm N)
KILG - New Castle Airport (19 nm S)
KMQS - Chester County G O Carlson Airport (19 nm W)
 
Loc | Ops | Rwys | IFR | FBO | Links
Com | Nav | Svcs | Stats | Notes
Area around 36PN (US Army Reserve Center Heliport)
 
Road maps at: MapQuest Bing Google
 
Aerial photo
No photo
 
Sectional chart

 
Airport distance calculator
Flying to US Army Reserve Center Heliport? Find the distance to fly.

From to 36PN

Sunrise and sunset
Times for 07-Aug-2022
 Local
(UTC-4)
 Zulu
(UTC)
Morning civil twilight05:3709:37
Sunrise06:0710:07
Sunset20:0800:08
Evening civil twilight20:3800:38

Current date and time
Zulu (UTC)  07-Aug-2022 22:59:35
Local (UTC-4)  07-Aug-2022 18:59:35
 
METAR
KOQN 
6nm W 
072235Z AUTO 19003KT 10SM CLR 31/21 A3011 RMK AO2
KPHL 
12nm SE 
072254Z 21012KT 10SM FEW050 FEW150 33/20 A3009 RMK AO2 SLP188 T03280200 $
KLOM 
13nm NE 
072235Z AUTO 23010KT 10SM CLR 32/19 A3010 RMK AO2 T03160190
KPTW 
17nm N 
072254Z AUTO 21006KT 10SM CLR 29/22 A3011 RMK AO2 SLP191 T02940217
KMQS 
19nm W 
072235Z AUTO VRB04G11KT 10SM CLR 28/24 A3014 RMK AO2
KILG 
19nm S 
072251Z 23008KT 10SM CLR 32/21 A3010 RMK AO2 SLP193 T03170211
TAF
KPHL 
12nm SE 
072052Z 0721/0824 22015G23KT P6SM SCT050 FM072300 22010G18KT P6SM SCT040 SCT150 FM080100 21007KT P6SM SCT080 FM081500 23010G18KT P6SM SCT050
KILG 
19nm S 
071742Z 0718/0818 21010G18KT P6SM SCT050 FM080100 20006KT P6SM SCT080 FM081500 22008G16KT P6SM SCT050
NOTAMs
Click for the latest NOTAMs
NOTAMs are issued by the DoD/FAA and will open in a separate window not controlled by AirNav.

 

 
 

Would you like to see your business listed on this page?

 If your business provides an interesting product or service to pilots, flight crews, aircraft, or users of the US Army Reserve Center Heliport, you should consider listing it here.  To start the listing process, click on the button below
 
Add a business
 

Other Pages about US Army Reserve Center Heliport

Update a link
 
Copyright © AirNav, LLC. All rights reserved. Privacy Policy  Contact